This is the latest recevied weather packets stored in our database for station/object KQ4KX. If no packets are shown the sender has not sent any weather packets the latest 10 day(s).
| Time | Temp. | Humidity | Pressure | Rain* | Wind** | Luminosity | Snow |
|---|---|---|---|---|---|---|---|
| 1787955386 | 24.44° C | 97% | 1017.2 hPa | 4.32 mm | - | - | - |
| 1787955250 | 24.44° C | 97% | 1017.2 hPa | 4.32 mm | - | - | - |
| 1787955048 | 24.44° C | 97% | 1017.4 hPa | 3.3 mm | - | - | - |
| 1787954951 | 24.44° C | 97% | 1017.4 hPa | 3.3 mm | - | - | - |
| 1787954651 | 25° C | 96% | 1017.6 hPa | 2.03 mm | - | - | - |
| 1787954486 | 25° C | 96% | 1017.8 hPa | 1.78 mm | - | - | - |
| 1787954350 | 25° C | 96% | 1017.8 hPa | 1.78 mm | - | - | - |
| 1787954143 | 25° C | 95% | 1017.9 hPa | 1.27 mm | - | - | - |
| 1787954050 | 25° C | 95% | 1017.9 hPa | 1.27 mm | - | - | - |
| 1787953451 | 25° C | 95% | 1017.7 hPa | 1.52 mm | - | - | - |
| 1787953271 | 25° C | 95% | 1017.5 hPa | 1.52 mm | - | - | - |
| 1787953150 | 25° C | 95% | 1017.5 hPa | 1.52 mm | - | - | - |
| 1787953016 | 25° C | 94% | 1017.5 hPa | 1.78 mm | - | - | - |
| 1787952851 | 25° C | 94% | 1017.5 hPa | 1.78 mm | - | - | - |
| 1787952709 | 25° C | 94% | 1017.2 hPa | 2.29 mm | - | - | - |
| 1787952520 | 25° C | 94% | 1017.2 hPa | 2.29 mm | - | - | - |
| 1787952107 | 25.56° C | 94% | 1017.4 hPa | 2.29 mm | - | - | - |
| 1787951891 | 25.56° C | 94% | 1017.4 hPa | 2.29 mm | - | - | - |
| 1787951560 | 25.56° C | 94% | 1017.4 hPa | 1.78 mm | - | - | - |
| 1787951231 | 25.56° C | 94% | 1017.6 hPa | 1.52 mm | - | - | - |
| 1787951167 | 33.89° C | 65% | 1017.4 hPa | 0 mm | - | - | - |
| 1787951167 | 33.89° C | 66% | 1017.5 hPa | 0 mm | - | - | - |
| 1787951166 | 33.33° C | 66% | 1017.6 hPa | 0 mm | - | - | - |
| 1787950931 | 25.56° C | 94% | 1017.8 hPa | 1.52 mm | - | - | - |
| 1787950766 | 25.56° C | 94% | 1017.7 hPa | 1.52 mm | - | - | - |
* Rain latest hour (hover to see other rain measurements)
** Current wind speed in m/s (hover to see current wind gust speed)